User: anonymous   Login
Location: ????????
(42.0488°N, 44.0407°E)
Time: 17:45:21
(UTC+00:00)
Language:

Cosmos 1743 Rocket - Orbit

View from above orbital plane
View from above orbital plane
View from above satellite
View from above satellite

Ground track
Ground track

The orbit data is extracted from the following two-line orbital elements,

1 16720U 86034B   20228.17452310  .00000071  00000-0  57242-5 0  9997
2 16720  82.5516 244.5875 0018699 249.3597 178.8246 14.83399591850485
Epoch (UTC): 15 August 2020 04:11:18
Eccentricity: 0.0018699
inclination: 82.5516°
perigee height: 605 km
apogee height: 632 km
right ascension of ascending node: 244.5875°
argument of perigee: 249.3597°
revolutions per day: 14.83399591
mean anomaly at epoch: 178.8246°
orbit number at epoch: 85048

The dashed part of the orbit path shows where the satellite is in the earth's shadow,  

DLR